Wind_Speed
39 39 39 39 37 37 38 39 40 39 38 36 36 38 38 38 38 38 37 37 37 38 38 38 38 39 40 40 41 41 40 39 39 39 39 38 37 38 37 37 37 37 37 37
39 38 39 40 38 37 37 38 39 38 38 35 36 38 39 39 38 38 37 38 38 38 38 38 38 38 39 39 39 39 39 38 38 37 37 37 36 36 35 35 35 35 35 35
41 40 41 41 37 37 37 37 38 38 37 37 38 39 39 39 39 38 38 38 38 39 39 38 38 38 38 38 37 37 36 36 36 36 36 36 36 35 34 34 33 34 34 35
42 41 42 39 38 38 38 38 38 39 38 38 38 39 39 38 38 38 38 38 38 37 37 37 37 37 37 36 36 36 35 35 34 35 34 34 34 34 33 32 32 33 33 34
40 41 41 38 37 37 38 38 37 37 37 37 37 37 37 37 37 37 37 37 36 36 36 36 36 36 36 36 36 35 35 35 35 34 33 32 32 31 31 31 31 31 31 31
38 39 39 35 35 35 36 36 34 34 34 34 35 36 35 36 36 37 37 36 36 36 37 37 37 37 36 36 36 36 36 35 34 33 32 32 32 31 30 29 28 28 28 28
35 36 36 33 33 34 35 34 33 32 33 33 34 34 34 35 36 37 37 37 37 37 37 37 37 37 37 36 36 36 35 35 33 32 32 31 31 30 28 26 25 25 26 26
32 34 33 32 33 33 33 33 33 33 32 33 33 33 34 35 36 37 37 37 37 37 38 37 37 36 36 36 35 35 34 33 32 31 30 29 28 27 26 25 24 24 25 25
31 30 30 31 31 31 31 32 31 32 32 33 33 33 34 34 35 35 36 36 36 36 36 36 35 35 34 33 33 32 31 30 29 29 28 27 26 24 25 25 25 24 24 24
31 30 30 30 30 30 30 31 31 31 32 32 32 33 33 34 34 34 34 34 34 34 33 33 32 31 31 30 29 28 26 26 25 25 25 25 25 24 24 24 24 23 23 23
29 28 28 28 29 30 30 31 31 31 32 32 32 32 32 32 32 31 31 30 30 30 30 29 28 27 26 26 26 25 24 24 24 23 23 23 23 22 22 22 22 22 22 22
28 28 28 28 28 28 28 28 29 30 30 30 31 30 30 30 30 29 29 28 27 27 27 26 25 25 24 24 24 24 23 23 23 22 22 22 22 21 22 22 21 20 20 21
28 28 28 28 28 28 28 28 28 29 29 29 29 29 29 28 28 27 27 26 25 25 25 24 24 24 23 22 22 22 23 22 22 22 22 22 21 21 21 21 20 19 19 19
27 27 27 27 28 27 27 27 28 28 28 28 28 27 27 26 26 25 25 24 24 23 23 22 22 22 21 20 20 20 20 20 20 20 20 20 19 19 19 19 18 18 17 17
25 25 25 26 27 28 28 27 27 27 28 28 27 27 26 25 24 24 23 22 22 22 22 21 20 19 19 18 17 17 17 17 17 17 17 16 16 16 17 17 17 16 16 16
23 23 23 24 25 26 27 27 27 27 27 27 26 25 24 23 22 22 21 21 20 20 20 19 18 18 18 16 16 15 15 14 15 15 15 15 15 15 15 15 15 15 15 15
21 22 22 23 23 23 23 23 23 24 24 24 23 22 21 21 20 20 20 20 20 19 18 17 17 17 17 17 16 15 14 14 14 13 13 14 14 14 14 14 14 14 14 14
20 22 22 22 22 21 21 21 21 21 22 22 21 21 20 20 20 19 19 20 20 19 18 17 16 16 16 15 15 14 13 12 12 12 12 13 14 14 14 15 15 15 14 14
19 21 22 22 21 21 20 20 21 21 21 21 21 21 20 20 20 20 19 19 19 18 18 16 16 15 15 15 15 15 14 13 12 12 12 12 13 14 14 14 14 14 14 14
18 19 20 20 20 20 20 20 21 21 21 21 20 20 20 19 19 19 19 18 17 17 16 16 16 15 15 15 15 15 14 13 13 12 13 13 14 14 14 14 15 15 15 15
17 18 19 20 20 20 20 20 20 20 20 20 19 19 18 17 17 17 16 16 16 15 15 15 15 14 14 14 14 15 15 14 13 13 13 13 13 13 13 14 15 15 14 14
16 16 17 18 19 20 19 19 19 19 19 18 18 17 16 16 16 16 16 15 15 15 15 15 15 14 14 14 14 14 14 14 13 13 13 13 13 12 12 13 13 13 13 13
15 16 16 17 17 18 18 18 18 18 18 18 17 16 16 16 16 15 15 15 15 15 15 15 15 15 14 14 14 14 14 13 13 13 13 13 12 12 12 12 12 12 13 13
16 16 16 16 16 17 17 17 17 17 17 18 17 17 17 16 16 16 15 15 15 15 15 15 14 14 14 14 14 13 13 13 13 13 13 13 12 12 12 12 12 12 13 13
16 16 16 16 16 16 16 16 16 17 17 18 18 17 17 17 16 16 15 14 14 15 15 15 15 14 13 13 13 13 13 13 13 13 13 12 12 13 13 13 13 12 13 13
16 16 15 15 15 15 15 15 15 16 16 16 16 16 16 16 16 16 15 15 14 14 14 14 14 13 13 13 13 12 12 13 13 12 12 12 13 13 13 13 14 13 13 13
14 14 14 14 14 14 14 14 14 14 14 14 15 15 15 15 15 15 15 14 14 14 14 13 13 13 13 13 13 12 12 13 12 12 12 12 12 13 13 14 14 14 13 13
Wind_Direction
258 259 259 259 260 261 262 264 266 266 266 268 269 269 269 270 272 272 274 276 277 277 276 276 277 279 279 279 279 280 277 278 280 278 276 274 272 269 266 265 264 264 263 262
255 257 258 258 259 261 262 263 265 266 267 267 269 269 269 271 272 272 273 275 276 275 276 278 279 280 281 281 280 279 279 279 279 278 277 275 273 269 266 264 264 263 263 261
254 254 256 257 258 260 261 263 265 266 268 267 266 268 270 270 271 272 273 274 275 276 278 279 280 281 281 280 279 278 278 279 279 278 277 275 272 269 266 264 263 262 262 261
254 254 256 258 258 258 260 262 264 266 268 269 269 268 269 270 271 271 272 274 275 275 276 278 279 280 281 278 276 276 276 277 279 278 277 275 272 268 265 263 263 262 262 262
255 257 258 257 258 259 261 262 264 267 268 268 268 267 266 267 269 271 272 272 273 274 275 276 277 278 278 277 276 276 277 278 278 278 277 274 271 268 266 264 263 263 261 260
256 258 260 260 260 260 262 264 264 266 267 266 266 267 267 267 268 271 272 273 274 275 276 277 278 279 278 277 277 276 276 276 277 276 274 273 271 269 266 265 263 261 259 259
256 259 261 261 262 262 264 265 265 268 269 268 267 269 270 269 270 271 273 274 274 275 276 278 278 278 278 277 277 277 276 275 275 273 272 271 269 267 264 262 260 258 258 255
255 257 261 262 262 262 265 266 267 269 269 270 270 272 273 273 273 273 274 274 274 274 275 276 278 278 278 277 276 276 276 275 273 272 269 267 266 263 259 258 259 258 257 254
254 257 258 258 260 262 265 267 268 268 268 270 272 273 275 276 276 276 275 275 275 275 274 276 278 278 278 277 276 274 273 271 270 268 267 266 263 260 257 257 258 256 254 252
254 256 256 257 258 261 263 265 267 268 269 271 272 273 274 275 276 276 276 275 275 274 275 276 277 276 277 276 275 273 270 269 268 266 264 263 260 259 256 256 255 253 251 249
255 256 256 256 258 260 262 263 264 265 268 270 272 274 275 276 276 275 275 274 273 273 274 274 275 276 276 275 272 270 269 268 266 264 260 258 256 256 253 251 251 252 250 248
254 254 256 257 259 259 260 261 263 265 269 272 274 274 275 275 274 274 274 274 274 273 274 273 273 275 276 274 270 267 266 267 266 263 260 258 256 253 250 249 248 249 248 245
254 254 256 257 258 259 261 263 265 267 268 269 271 273 273 273 273 273 273 274 273 273 273 273 274 273 274 274 272 268 266 266 264 263 260 257 254 251 249 249 248 246 244 243
254 254 255 256 258 261 264 265 266 267 268 269 270 271 271 271 272 272 272 271 270 271 272 273 273 272 272 274 273 269 266 265 263 262 258 253 249 247 245 244 244 245 243 243
254 254 255 257 259 262 264 265 266 267 269 270 271 270 270 270 271 271 270 269 268 269 270 269 270 270 271 273 272 269 266 263 262 259 253 249 245 241 239 238 237 237 239 240
254 255 257 260 262 265 266 266 267 269 270 270 270 270 270 270 269 268 267 266 267 268 268 267 266 265 265 266 267 265 263 261 259 254 249 245 242 240 239 238 235 234 235 237
256 258 261 263 266 267 268 268 268 268 268 269 269 269 268 269 268 266 264 263 266 265 265 263 261 261 262 263 263 263 263 262 257 253 245 240 238 236 234 233 232 232 232 234
260 260 262 264 265 267 269 268 267 267 267 267 267 267 267 266 267 266 264 262 262 262 262 261 260 260 258 258 260 262 261 256 252 249 242 238 238 235 235 235 233 231 232 232
264 262 262 263 264 266 267 266 266 266 266 266 266 264 264 265 265 265 263 261 260 259 258 257 256 255 255 255 256 257 255 251 249 245 238 241 243 241 240 238 235 234 235 237
268 267 264 263 265 266 267 267 265 265 266 265 264 263 263 264 264 263 262 262 260 257 254 253 253 253 254 254 253 251 249 246 246 243 241 243 243 242 241 239 237 236 237 236
271 271 269 267 267 268 268 267 265 263 264 263 263 262 262 263 263 261 259 258 257 253 249 248 248 250 253 254 251 246 244 244 245 243 242 243 243 241 240 238 235 234 234 231
275 274 275 273 271 269 268 267 265 263 263 262 263 262 260 259 260 259 257 256 253 249 246 245 246 248 250 251 248 244 242 241 242 241 238 239 239 237 236 234 228 226 225 222
276 278 279 277 273 270 269 268 266 263 261 261 261 260 259 257 256 257 256 255 250 245 244 244 245 247 248 248 245 243 241 238 237 235 233 234 234 232 230 225 219 218 216 214
277 278 279 278 275 273 271 268 266 263 260 259 258 256 256 255 255 255 254 252 248 243 242 242 243 246 247 244 242 239 236 233 230 228 227 228 227 226 222 217 212 210 209 207
278 278 278 278 278 276 272 269 266 262 259 257 255 253 252 252 253 252 249 246 245 243 241 242 243 243 241 239 237 234 231 228 226 224 225 225 222 219 216 212 208 206 206 206
279 278 277 278 278 276 273 269 266 262 259 255 251 249 249 249 250 248 246 243 240 238 239 241 241 241 238 233 230 227 225 224 223 222 222 220 214 211 211 209 206 204 203 203
281 280 279 278 278 277 274 270 266 263 259 253 250 250 248 246 244 243 241 239 236 235 235 235 234 234 232 228 225 223 222 221 219 215 212 210 207 206 207 206 203 200 199 198
Height
5547 5548 5549 5550 5552 5552 5551 5552 5552 5554 5555 5557 5555 5553 5552 5551 5550 5549 5548 5547 5545 5544 5542 5540 5538 5536 5533 5531 5529 5527 5525 5523 5522 5520 5518 5516 5515 5515 5515 5516 5517 5518 5519 5520
5535 5537 5537 5538 5541 5541 5541 5541 5541 5542 5544 5546 5544 5542 5541 5540 5539 5539 5538 5537 5535 5534 5532 5530 5527 5525 5523 5521 5519 5517 5515 5513 5512 5510 5508 5507 5506 5505 5506 5507 5507 5509 5510 5511
5524 5526 5525 5528 5533 5532 5531 5532 5532 5531 5534 5534 5533 5532 5531 5530 5529 5529 5528 5527 5526 5524 5522 5520 5518 5516 5514 5511 5509 5507 5506 5504 5502 5500 5499 5497 5497 5496 5496 5497 5498 5499 5500 5502
5512 5514 5514 5521 5522 5521 5521 5522 5521 5521 5522 5522 5522 5521 5520 5520 5519 5519 5518 5517 5516 5514 5512 5510 5508 5506 5504 5502 5500 5498 5496 5495 5493 5491 5490 5488 5487 5487 5488 5488 5489 5491 5491 5492
5501 5502 5504 5509 5510 5510 5510 5511 5512 5511 5511 5511 5511 5510 5511 5511 5509 5509 5508 5507 5505 5504 5503 5501 5499 5497 5495 5493 5491 5489 5487 5486 5484 5483 5481 5480 5479 5479 5479 5480 5481 5482 5483 5483
5491 5492 5494 5500 5500 5499 5500 5501 5502 5501 5501 5501 5501 5501 5502 5501 5500 5499 5498 5497 5495 5494 5493 5491 5489 5487 5485 5484 5482 5480 5478 5477 5475 5474 5473 5471 5471 5471 5471 5472 5473 5474 5475 5475
5481 5481 5484 5489 5489 5489 5491 5492 5492 5491 5491 5491 5491 5491 5491 5490 5490 5488 5488 5487 5485 5484 5483 5482 5479 5477 5476 5474 5472 5470 5469 5467 5466 5465 5463 5463 5462 5462 5463 5464 5465 5466 5467 5468
5472 5473 5477 5478 5478 5480 5480 5481 5481 5481 5481 5482 5481 5481 5480 5480 5479 5478 5478 5477 5475 5474 5473 5472 5469 5467 5465 5464 5462 5460 5458 5457 5456 5455 5454 5453 5454 5454 5455 5457 5458 5459 5460 5461
5463 5465 5466 5467 5468 5470 5471 5471 5472 5472 5472 5472 5472 5471 5471 5470 5469 5468 5467 5466 5465 5464 5463 5462 5460 5458 5456 5454 5452 5450 5449 5448 5447 5446 5445 5445 5446 5447 5448 5449 5451 5452 5453 5455
5453 5455 5456 5457 5459 5460 5461 5461 5462 5462 5462 5462 5462 5461 5461 5460 5459 5458 5457 5456 5455 5454 5453 5452 5450 5448 5446 5444 5442 5441 5440 5439 5438 5437 5438 5438 5439 5440 5441 5443 5444 5446 5447 5449
5444 5446 5447 5449 5450 5451 5451 5452 5452 5453 5453 5453 5452 5452 5451 5450 5449 5448 5448 5447 5446 5445 5444 5443 5441 5439 5437 5435 5434 5433 5432 5431 5431 5430 5430 5431 5432 5433 5435 5436 5439 5440 5442 5443
5436 5437 5438 5440 5441 5441 5442 5443 5443 5443 5444 5443 5443 5442 5441 5441 5440 5439 5438 5438 5437 5436 5435 5434 5433 5432 5430 5428 5427 5426 5425 5425 5424 5424 5425 5425 5426 5427 5428 5430 5432 5434 5435 5437
5427 5428 5429 5431 5432 5433 5433 5434 5434 5434 5434 5434 5434 5433 5432 5431 5431 5430 5429 5429 5428 5427 5427 5426 5425 5424 5422 5421 5420 5419 5419 5418 5418 5418 5418 5419 5420 5422 5423 5425 5426 5428 5430 5431
5418 5420 5421 5422 5423 5424 5424 5425 5425 5425 5425 5425 5425 5424 5423 5423 5422 5422 5421 5421 5420 5420 5419 5418 5417 5417 5416 5415 5413 5413 5412 5412 5412 5412 5413 5414 5415 5417 5418 5420 5422 5423 5425 5426
5411 5412 5413 5414 5415 5415 5416 5416 5416 5416 5416 5416 5416 5416 5415 5415 5415 5414 5414 5413 5413 5412 5412 5411 5411 5410 5410 5409 5408 5407 5407 5407 5407 5407 5408 5409 5411 5412 5414 5416 5417 5419 5421 5422
5403 5404 5405 5406 5407 5407 5407 5408 5408 5408 5408 5408 5408 5407 5407 5407 5407 5407 5406 5406 5406 5406 5405 5405 5405 5404 5404 5404 5403 5403 5403 5403 5403 5403 5404 5406 5407 5408 5410 5412 5413 5415 5417 5418
5396 5397 5398 5398 5399 5399 5399 5399 5399 5400 5400 5400 5400 5400 5400 5400 5400 5399 5399 5399 5399 5399 5399 5399 5399 5399 5399 5399 5399 5399 5399 5398 5399 5399 5400 5402 5403 5405 5406 5408 5410 5412 5413 5415
5389 5390 5391 5391 5391 5392 5392 5392 5392 5392 5392 5392 5393 5393 5393 5393 5393 5393 5393 5392 5392 5392 5392 5392 5393 5393 5393 5393 5394 5394 5394 5394 5395 5396 5397 5398 5399 5401 5403 5405 5406 5408 5409 5411
5382 5383 5383 5384 5384 5384 5385 5385 5385 5385 5385 5385 5385 5386 5386 5386 5386 5386 5386 5386 5386 5386 5386 5386 5387 5387 5388 5388 5388 5389 5389 5390 5391 5392 5393 5394 5396 5397 5399 5400 5402 5404 5406 5408
5376 5376 5376 5376 5377 5377 5377 5378 5378 5378 5378 5378 5378 5379 5379 5379 5379 5379 5380 5380 5380 5380 5380 5381 5381 5382 5382 5383 5383 5384 5385 5386 5387 5388 5389 5390 5392 5393 5394 5396 5398 5400 5402 5404
5369 5369 5369 5369 5370 5370 5370 5370 5370 5371 5371 5371 5371 5372 5372 5373 5373 5373 5373 5374 5374 5374 5375 5376 5376 5377 5378 5378 5379 5379 5380 5381 5382 5384 5385 5386 5387 5389 5390 5392 5394 5395 5397 5399
5364 5363 5363 5363 5363 5363 5363 5363 5363 5364 5364 5364 5365 5365 5366 5367 5367 5367 5368 5368 5369 5369 5370 5371 5372 5372 5373 5374 5374 5375 5376 5377 5378 5379 5381 5382 5383 5385 5386 5388 5390 5391 5393 5395
5358 5358 5357 5357 5357 5356 5356 5356 5357 5357 5357 5358 5359 5359 5360 5360 5361 5362 5362 5363 5363 5364 5365 5366 5367 5367 5368 5369 5370 5370 5371 5373 5374 5375 5377 5378 5379 5381 5383 5384 5386 5388 5390 5392
5353 5352 5352 5351 5351 5351 5350 5350 5350 5351 5351 5352 5352 5353 5354 5355 5355 5356 5356 5357 5358 5359 5360 5361 5362 5363 5364 5364 5365 5366 5367 5369 5370 5371 5373 5375 5376 5378 5379 5381 5383 5385 5388 5390
5347 5347 5346 5346 5345 5345 5345 5344 5344 5345 5345 5345 5346 5347 5348 5349 5349 5350 5351 5352 5353 5354 5355 5356 5357 5358 5359 5360 5361 5362 5363 5365 5366 5368 5370 5371 5373 5374 5377 5379 5381 5383 5385 5388
5342 5341 5341 5340 5340 5339 5339 5339 5339 5339 5339 5339 5340 5341 5342 5343 5344 5345 5346 5347 5348 5349 5350 5351 5352 5354 5355 5356 5357 5358 5360 5361 5363 5365 5366 5368 5370 5372 5374 5376 5379 5381 5384 5386
5336 5336 5335 5335 5335 5334 5334 5334 5334 5334 5334 5334 5335 5336 5336 5337 5338 5339 5340 5342 5343 5344 5346 5347 5348 5350 5351 5352 5353 5355 5356 5358 5360 5362 5363 5365 5367 5369 5371 5374 5377 5379 5382 5384